If you wish to contribute or participate in the discussions about articles you are invited to join SKYbrary as a registered user

 Actions

Gove Airport

From SKYbrary Wiki

YPGV
Airport
ICAO: YPGV – IATA: GOV
Summary
Name Gove Airport
Region Asia and Pacific
Territory Australia AU.gif
Location Nhulunbuy, Northern Territory
Serving Nhulunbuy
Elevation 62.484 m
205 ft
205 ft62.484 m
Coordinates 12° 16' 28.93" S, 136° 49' 34.17" E
Runways
Designator Length Width Surface ROPS
13/31 2208 m7,244.094 ft
45 m147.638 ft
ASP yes/yes


METAR
Observation YPGV 232300Z 09011KT 9999 SCT022 28/22 Q1014
Station GOVE AIRPORT
Date/Time 23 October 2019 23:00:00
Wind direction 90°
Wind speed 11 kts
Lowest cloud amount scattered clouds
Temperature 28°C
Dew point 22°C
Humidity 69%
QNH 1014 hPa
Weather condition n/a

Gove Airport is on the Gove Peninsula in the Northern Territory of Australia. It services the mining town of Nhulunbuy and several Aboriginal communities including Yirrkala.

Maps

Terrain

Loading map...

Airport Layout

Loading map...


Accidents & Serious Incidents at or in vicinity of YPGV

None on SKYbrary